Back to catalog

CZ-4C DEB

AlivePO
NORAD 35248·DEBRIS·🇨🇳 China

Launched Nov 11, 2007 from Taiyuan Satellite Launch Center

Loading…

Next Passes (next 24 hours)

TLE

FreshSource: Space-Track

Epoch: Sep 13, 2026, 23:58 UTC

1 35248U 07055C   26256.99886696  .00284416  00000-0  22321-2 0  9998
2 35248  97.8470  91.0199 0017824 315.9618  44.0223 15.70491434  2367

Track CZ-4C DEB in real time with AllMySat

Download on the App Store